EW8410 Weather Reports


Display with metric or nautical units.
time (UTC)temp
F
wind
direction
speed
MPH
gust
MPH
rain 1hr
in
rain 24hr
in
rain mn
in
humidity
%
barometer
mb
20260503013055 49 147 0.0 2.0 0.00 0.00 0.00 91 1009.1
20260503011612 49 70 0.0 2.0 0.00 0.00 0.00 91 1009.1
20260503010055 49 198 0.0 2.0 0.00 0.00 0.00 90 1009.0
20260503004551 49 198 0.0 2.0 0.00 0.00 0.00 90 1008.8
20260503003049 49 198 0.0 2.0 0.00 0.00 0.00 90 1008.8
20260503001547 49 198 0.0 2.0 0.00 0.00 0.00 89 1008.7
20260502234558 50 198 0.0 2.0 0.00 0.00 0.00 89 1009.0
20260502233045 50 198 0.0 2.0 0.00 0.00 0.00 88 1008.9
20260502231546 50 198 0.0 0.0 0.00 0.00 0.00 88 1008.9
20260502230044 50 198 0.0 2.0 0.00 0.00 0.00 88 1008.9
20260502224543 50 198 0.0 0.0 0.00 0.00 0.00 88 1009.0
20260502223044 50 198 0.0 2.0 0.00 0.00 0.00 87 1008.9
20260502221541 50 217 0.0 2.0 0.00 0.00 0.00 88 1008.9
20260502220048 50 288 0.0 2.0 0.00 0.00 0.00 88 1008.7
20260502214539 50 169 0.0 2.0 0.00 0.00 0.00 88 1008.7
20260502213041 50 177 0.0 2.0 0.00 0.00 0.00 88 1008.7
20260502211539 50 237 0.0 2.0 0.00 0.00 0.00 87 1008.8
20260502210035 50 179 1.0 4.0 0.00 0.00 0.00 87 1008.8
20260502204536 50 146 0.0 3.0 0.00 0.00 0.00 86 1009.1
20260502203032 50 90 0.0 5.0 0.00 0.00 0.00 85 1009.0
20260502201529 50 151 1.0 6.0 0.00 0.00 0.00 85 1009.1
20260502200030 51 176 2.0 4.0 0.00 0.00 0.00 85 1009.2
20260502194525 51 178 1.0 6.0 0.00 0.00 0.00 85 1009.4
20260502193022 51 138 1.0 6.0 0.00 0.00 0.00 84 1009.7
20260502191521 51 65 1.0 7.0 0.00 0.00 0.00 84 1009.8
20260502190020 51 194 1.0 4.0 0.00 0.00 0.00 84 1010.0
20260502184517 52 171 0.0 9.0 0.00 0.00 0.00 82 1010.2
20260502183015 52 182 2.0 5.0 0.00 0.00 0.00 81 1010.3
20260502181513 53 171 3.0 8.0 0.00 0.00 0.00 79 1010.3
20260502163010 53 190 3.0 7.0 0.00 0.00 0.00 77 1010.3
20260502161501 53 169 4.0 7.0 0.00 0.00 0.00 77 1010.5
20260502151612 53 168 1.0 6.0 0.00 0.00 0.00 75 1011.1
20260502123042 51 285 0.0 4.0 0.00 0.00 0.00 80 1011.4
20260502121541 51 234 1.0 6.0 0.00 0.00 0.00 81 1011.3
20260502114539 50 215 1.0 6.0 0.00 0.00 0.00 82 1011.1
20260502113047 49 203 0.0 6.0 0.00 0.00 0.00 82 1011.1
20260502111535 49 156 2.0 6.0 0.00 0.00 0.00 81 1010.9
20260502110035 49 164 0.0 4.0 0.00 0.00 0.00 81 1010.9
20260502104529 49 105 0.0 6.0 0.00 0.00 0.00 81 1011.0
20260502103027 48 185 0.0 6.0 0.00 0.00 0.00 81 1010.8
20260502101527 48 105 1.0 5.0 0.00 0.00 0.00 80 1010.6
20260502091519 48 179 0.0 2.0 0.00 0.00 0.00 78 1010.5
20260502071508 48 242 0.0 4.0 0.00 0.00 0.00 70 1010.3
20260502070015 49 195 0.0 2.0 0.00 0.00 0.00 69 1010.5
20260502064505 49 144 0.0 2.0 0.00 0.00 0.00 68 1010.3
20260502063002 50 85 0.0 2.0 0.00 0.00 0.00 68 1010.5
20260502061601 50 221 0.0 2.0 0.00 0.00 0.00 68 1010.7
20260502060058 50 100 0.0 3.0 0.00 0.00 0.00 67 1010.6
20260502054612 50 109 0.0 4.0 0.00 0.00 0.00 68 1010.6
20260502053055 50 227 1.0 5.0 0.00 0.00 0.00 68 1010.9
20260502051554 50 193 1.0 5.0 0.00 0.00 0.00 69 1010.9
20260502050051 51 80 1.0 6.0 0.00 0.00 0.00 69 1010.8
20260502044555 51 184 2.0 7.0 0.00 0.00 0.00 67 1010.8
20260502043050 51 234 0.0 6.0 0.00 0.00 0.00 67 1010.8
20260502041558 51 194 0.0 5.0 0.00 0.00 0.00 67 1010.8
20260502040047 51 99 1.0 5.0 0.00 0.00 0.00 67 1010.9
20260502034548 51 227 1.0 3.0 0.00 0.00 0.00 68 1010.8
20260502033045 51 136 0.0 3.0 0.00 0.00 0.00 69 1010.9
20260502031550 51 224 0.0 5.0 0.00 0.00 0.00 69 1010.9
20260502030043 51 76 0.0 4.0 0.00 0.00 0.00 68 1010.8
20260502024553 51 178 1.0 4.0 0.00 0.00 0.00 67 1010.7
20260502023102 51 222 0.0 6.0 0.00 0.00 0.00 67 1010.5
20260502021540 51 350 0.0 4.0 0.00 0.00 0.00 67 1010.6
20260502020040 51 41 0.0 4.0 0.00 0.00 0.00 66 1010.7
20260502014539 52 122 1.0 3.0 0.00 0.00 0.00 65 1010.7